NOAA 17 DEB

Satellite information

Favourite Embed

Satellite Type and Status

DEBRISIN ORBIT

Key statistics

Satellite NOAA 17 DEB at a glance.

Uptime

8518

Days in orbit

Revolutions

≈ 14.3

Per day

Orbit

SSO

Sun Synchronous Orbit

Inclination

98.8

Latest

Satellite identification and parameters

Extended collection of information and parameters for NOAA 17 DEB.

Object identification

Identified? True

Debris? True

Object name: NOAA 17 DEB

International designator: 2002-032AU

Object number (NORAD): 48711

Object ID (CCSDS): 48711

Country: UNITED STATES OF AMERICA (US)

Current information (Y/N): Y

RCS size: SMALL

Orbital parameters

Period: 100.63 minutes

Inclination: 98.7914 deg

SMA: 7166.564 km

Apoapsis: 833.869 km

Periapsis: 742.99 km

RAAN: 237.7827 deg

Eccentricy: 0.00634048

Argument of periapsis: 357.2188 deg

Mean anomaly: 2.8633 deg

Mean motion: 14.30988895 rev/day

Mean motion (dot): 0.00011793 rev/day2

B* drag term: 0.0043957051 1/REarth

Two-line elements (TLE)

Creation date: Oct. 18, 2025, 2:17 a.m.

Reference frame: TEME

Reference center: EARTH

Epoch: Oct. 17, 2025, 7:39 p.m. UTC

TLE line 0: 0 NOAA 17 DEB

TLE line 1: 1 48711U 02032AU 25290.81926479 .00011793 00000-0 43957-2 0 9993

TLE line 2: 2 48711 98.7914 237.7827 0063405 357.2188 2.8633 14.30988895236254

Live tracking on map

Real-time ground track for satellite NOAA 17 DEB.

In-orbit conjunctions

A list of the most updated potential collisions computed for object NOAA 17 DEB.

Target Orbit TCA Probability of collision Miss distance Type
NOAA 16 DEB SSO 2025-09-23 01:34:33 0.0001408586 54.0 (m) DEBRIS
IRIDIUM 17 LEO 2025-08-20 17:09:22 0.0001212651 486.0 (m) PAYLOAD
FENGYUN 1C DEB SSO 2025-07-28 09:32:32 0.0001254218 196.0 (m) DEBRIS
METEOR 1-5 DEB LEO 2025-05-16 07:21:44 0.0001130763 169.0 (m) DEBRIS
SL-8 R/B LEO 2025-03-21 06:51:54 0.0001737174 388.0 (m) ROCKET BODY

Associated space launch

NOAA M carried weather imagers and microwave and infrared sounders, as well as a SARSAT search-and-rescue package. It had an on-orbit mass of 1475 kg.

NOAA 17 DEB was lifted into orbit during the mission ‘Titan II SLV | NOAA 17’, on board a Titan II SLV space rocket.

The launch took place on June 24, 2002, 6:23 p.m. from Space Launch Complex 4W.

For more information about the launch, click the button.

Launch to space Titan II SLV | NOAA 17
Titan II SLV | NOAA 17

Agency: N/A

Status: Launch Successful

Launch date: June 24, 2002, 6:23 p.m. UTC

Rocket: Titan II SLV

Launch pad: Space Launch Complex 4W

Location: Vandenberg SFB, CA, USA

...

Latest news about this satellite

There are no fresh news available about this satellite. Check back as we update our databases every day.


Newsletter sign-up

Weekly statistics, charts and insights to help you stay on top of the space industry.